• Em Portugal
  • Lista de países
  • Para 7 dias
  • Temperatura da água
  • Mapas de satélite
  • Mapa do tempo
  • Widgets de tempo
  • user-avatar
    Iniciar Sessão

    Previsão horária em Ulegej

    Hoje, 20 Outubro, Sexta-feira

    Tempo Temperatura Precipitação Vento Pressão Humidade
    00:00 -1°C° 0 mm 4 m/s 618 mmHg 70%
    01:00 -2°C° 0 mm 4 m/s 618 mmHg 67%
    02:00 -2°C° 0 mm 4 m/s 618 mmHg 64%
    03:00 -2°C° 0 mm 3 m/s 618 mmHg 61%
    04:00 -2°C° 0 mm 3 m/s 618 mmHg 60%
    05:00 -2°C° 0 mm 3 m/s 618 mmHg 60%
    06:00 -4°C° 0 mm 3 m/s 618 mmHg 59%
    07:00 -2°C° 0 mm 5 m/s 618 mmHg 56%
    08:00 -2°C° 0 mm 6 m/s 619 mmHg 53%
    09:00 -1°C° 0 mm 7 m/s 619 mmHg 50%
    10:00 0°C° 0 mm 8 m/s 619 mmHg 48%
    11:00 +1°C° 0 mm 9 m/s 619 mmHg 45%
    12:00 +1°C° 0 mm 10 m/s 619 mmHg 43%
    13:00 +1°C° 0 mm 10 m/s 619 mmHg 44%
    14:00 +1°C° 0 mm 10 m/s 619 mmHg 44%
    15:00 +1°C° 0 mm 10 m/s 619 mmHg 45%
    16:00 0°C° 0 mm 8 m/s 619 mmHg 50%
    17:00 -1°C° 0 mm 7 m/s 619 mmHg 55%
    18:00 -1°C° 0 mm 5 m/s 619 mmHg 61%
    19:00 -1°C° 0 mm 5 m/s 620 mmHg 62%
    20:00 -1°C° 0 mm 5 m/s 620 mmHg 64%
    21:00 -1°C° 0 mm 4 m/s 621 mmHg 65%
    22:00 -2°C° 0 mm 4 m/s 621 mmHg 66%
    23:00 -2°C° 0 mm 4 m/s 621 mmHg 67%

    Amanhã, 21 Outubro, Sábado

    Tempo Temperatura Precipitação Vento Pressão Humidade
    00:00 -1°C° 0 mm 3 m/s 621 mmHg 68%
    01:00 -1°C° 0 mm 3 m/s 621 mmHg 69%
    02:00 -1°C° 0 mm 3 m/s 621 mmHg 70%
    03:00 -1°C° 0 mm 3 m/s 621 mmHg 71%
    04:00 -2°C° 0 mm 3 m/s 621 mmHg 71%
    05:00 -2°C° 0 mm 2 m/s 621 mmHg 72%
    06:00 -2°C° 0 mm 2 m/s 621 mmHg 73%
    07:00 -1°C° 0 mm 2 m/s 621 mmHg 68%
    08:00 +1°C° 0 mm 2 m/s 621 mmHg 63%
    09:00 +2°C° 0 mm 2 m/s 621 mmHg 58%
    10:00 +3°C° 0 mm 2 m/s 621 mmHg 54%
    11:00 +4°C° 0 mm 2 m/s 620 mmHg 50%
    12:00 +6°C° 0 mm 2 m/s 620 mmHg 46%
    13:00 +6°C° 0 mm 2 m/s 619 mmHg 45%
    14:00 +6°C° 0 mm 2 m/s 619 mmHg 44%
    15:00 +8°C° 0 mm 1 m/s 619 mmHg 44%
    16:00 +6°C° 0 mm 1 m/s 619 mmHg 49%
    17:00 +5°C° 0 mm 1 m/s 618 mmHg 54%
    18:00 +4°C° 0 mm 1 m/s 618 mmHg 59%
    19:00 +3°C° 0 mm 1 m/s 618 mmHg 59%
    20:00 +3°C° 0 mm 1 m/s 618 mmHg 60%
    21:00 +2°C° 0 mm 2 m/s 618 mmHg 60%
    22:00 +2°C° 0 mm 2 m/s 618 mmHg 60%
    23:00 +1°C° 0 mm 2 m/s 618 mmHg 59%

    Depois de amanhã, 22 Outubro, Domingo

    Tempo Temperatura Precipitação Vento Pressão Humidade
    00:00 +1°C° 0 mm 2 m/s 617 mmHg 58%
    01:00 +1°C° 0 mm 2 m/s 617 mmHg 57%
    02:00 +1°C° 0 mm 2 m/s 617 mmHg 56%
    03:00 +1°C° 0 mm 2 m/s 617 mmHg 55%
    04:00 -1°C° 0 mm 2 m/s 617 mmHg 54%
    05:00 -1°C° 0 mm 2 m/s 617 mmHg 53%
    06:00 -1°C° 0 mm 2 m/s 617 mmHg 53%
    07:00 +1°C° 0 mm 2 m/s 617 mmHg 49%
    08:00 +2°C° 0 mm 2 m/s 618 mmHg 46%
    09:00 +4°C° 0 mm 2 m/s 618 mmHg 42%
    10:00 +4°C° 0 mm 3 m/s 618 mmHg 40%
    11:00 +5°C° 0 mm 3 m/s 618 mmHg 38%
    12:00 +6°C° 0 mm 4 m/s 618 mmHg 36%
    13:00 +7°C° 0 mm 4 m/s 618 mmHg 37%
    14:00 +7°C° 0 mm 4 m/s 618 mmHg 38%
    15:00 +7°C° 0 mm 4 m/s 617 mmHg 38%
    16:00 +5°C° 0 mm 3 m/s 617 mmHg 44%
    17:00 +4°C° 0 mm 3 m/s 617 mmHg 49%
    18:00 +2°C° 0 mm 3 m/s 617 mmHg 55%
    19:00 +2°C° 0 mm 3 m/s 617 mmHg 56%
    20:00 +2°C° 0 mm 3 m/s 617 mmHg 56%
    21:00 +1°C° 0 mm 3 m/s 618 mmHg 57%
    22:00 +1°C° 0 mm 3 m/s 617 mmHg 56%
    23:00 +1°C° 0 mm 3 m/s 617 mmHg 56%

    23 Outubro, Segunda-feira

    Tempo Temperatura Precipitação Vento Pressão Humidade
    00:00 0°C° 0 mm 3 m/s 617 mmHg 55%
    01:00 0°C° 0 mm 3 m/s 617 mmHg 54%
    02:00 0°C° 0 mm 3 m/s 617 mmHg 53%
    03:00 +1°C° 0 mm 2 m/s 617 mmHg 51%
    04:00 +1°C° 0 mm 2 m/s 617 mmHg 51%
    05:00 +1°C° 0 mm 2 m/s 617 mmHg 50%
    06:00 -1°C° 0 mm 2 m/s 617 mmHg 50%
    07:00 +2°C° 0 mm 2 m/s 618 mmHg 46%
    08:00 +3°C° 0 mm 2 m/s 618 mmHg 42%
    09:00 +4°C° 0 mm 2 m/s 619 mmHg 38%
    10:00 +5°C° 0 mm 2 m/s 619 mmHg 36%
    11:00 +6°C° 0 mm 2 m/s 619 mmHg 34%
    12:00 +7°C° 0 mm 2 m/s 619 mmHg 31%
    13:00 +9°C° 0 mm 1 m/s 618 mmHg 31%
    14:00 +9°C° 0 mm 1 m/s 618 mmHg 31%
    15:00 +9°C° 0 mm 1 m/s 618 mmHg 31%
    16:00 +7°C° 0 mm 1 m/s 618 mmHg 36%
    17:00 +6°C° 0 mm 1 m/s 618 mmHg 41%
    18:00 +4°C° 0 mm 1 m/s 618 mmHg 46%
    19:00 +4°C° 0 mm 1 m/s 618 mmHg 46%
    20:00 +3°C° 0 mm 1 m/s 618 mmHg 46%
    21:00 +3°C° 0 mm 1 m/s 618 mmHg 47%
    22:00 +3°C° 0 mm 1 m/s 618 mmHg 46%
    23:00 +3°C° 0 mm 1 m/s 618 mmHg 46%

    24 Outubro, Terça-feira

    Tempo Temperatura Precipitação Vento Pressão Humidade
    00:00 +2°C° 0 mm 1 m/s 618 mmHg 46%
    01:00 +2°C° 0 mm 1 m/s 617 mmHg 46%
    02:00 +2°C° 0 mm 1 m/s 617 mmHg 46%
    03:00 +2°C° 0 mm 1 m/s 617 mmHg 45%
    04:00 +1°C° 0 mm 1 m/s 617 mmHg 45%
    05:00 +1°C° 0 mm 1 m/s 617 mmHg 44%
    06:00 +1°C° 0 mm 1 m/s 617 mmHg 44%
    07:00 +2°C° 0 mm 1 m/s 618 mmHg 40%
    08:00 +4°C° 0 mm 1 m/s 618 mmHg 36%
    09:00 +5°C° 0 mm 1 m/s 619 mmHg 32%
    10:00 +6°C° 0 mm 1 m/s 618 mmHg 30%
    11:00 +6°C° 0 mm 2 m/s 618 mmHg 28%
    12:00 +7°C° 0 mm 2 m/s 618 mmHg 26%
    13:00 +7°C° 0 mm 2 m/s 618 mmHg 27%
    14:00 +8°C° 0 mm 2 m/s 618 mmHg 28%
    15:00 +8°C° 0 mm 2 m/s 618 mmHg 28%
    16:00 +6°C° 0 mm 2 m/s 618 mmHg 33%
    17:00 +5°C° 0 mm 2 m/s 618 mmHg 38%
    18:00 +3°C° 0 mm 2 m/s 618 mmHg 43%
    19:00 +3°C° 0 mm 2 m/s 618 mmHg 45%
    20:00 +3°C° 0 mm 2 m/s 618 mmHg 47%
    21:00 +1°C° 0 mm 3 m/s 618 mmHg 50%
    22:00 +1°C° 0 mm 3 m/s 618 mmHg 51%
    23:00 +1°C° 0 mm 3 m/s 618 mmHg 51%

    25 Outubro, Quarta-feira

    Tempo Temperatura Precipitação Vento Pressão Humidade
    00:00 0°C° 0 mm 3 m/s 618 mmHg 52%
    01:00 0°C° 0 mm 3 m/s 618 mmHg 52%
    02:00 0°C° 0 mm 3 m/s 618 mmHg 53%
    03:00 0°C° 0 mm 3 m/s 618 mmHg 53%
    04:00 0°C° 0 mm 3 m/s 618 mmHg 53%
    05:00 -1°C° 0 mm 3 m/s 617 mmHg 54%
    06:00 -1°C° 0 mm 3 m/s 617 mmHg 55%
    07:00 -1°C° 0 mm 4 m/s 617 mmHg 52%
    08:00 +1°C° 0 mm 5 m/s 617 mmHg 48%
    09:00 +2°C° 0 mm 6 m/s 618 mmHg 45%
    10:00 +3°C° 0 mm 7 m/s 617 mmHg 44%
    11:00 +2°C° 0 mm 8 m/s 617 mmHg 43%
    12:00 +3°C° 0 mm 9 m/s 617 mmHg 42%
    13:00 +2°C° 0,1 mm 9 m/s 617 mmHg 47%
    14:00 +1°C° 0,1 mm 9 m/s 617 mmHg 52%
    15:00 0°C° 0,1 mm 9 m/s 616 mmHg 57%
    16:00 -1°C° 0,1 mm 9 m/s 616 mmHg 56%
    17:00 -3°C° 0,1 mm 9 m/s 617 mmHg 56%
    18:00 -4°C° 0,1 mm 9 m/s 617 mmHg 56%
    19:00 -5°C° 0 mm 9 m/s 617 mmHg 52%
    20:00 -6°C° 0 mm 9 m/s 617 mmHg 49%
    21:00 -6°C° 0 mm 9 m/s 617 mmHg 45%
    22:00 -8°C° 0 mm 9 m/s 617 mmHg 42%
    23:00 -9°C° 0 mm 9 m/s 617 mmHg 38%
    Mostrar mais